Presure
156 153 164 174 158 157 168 176 160 158 176 169 139 165 168 150 134 187 181 180 168 171 160 174 185 171 166 165 173 178 185 181 181 170 170 167 172 174 173 167 154 187 201 192
151 163 157 199 167 171 157 168 180 165 150 165 188 174 147 160 163 168 186 150 190 189 150 159 168 142 171 171 173 166 175 184 186 182 182 177 170 176 170 170 186 176 188 203
155 160 147 180 157 159 159 149 176 194 170 175 175 171 154 179 149 180 183 188 157 177 164 185 150 153 162 157 155 142 173 178 176 182 176 172 178 171 156 178 149 143 175 164
153 140 148 161 169 168 165 174 179 191 165 209 186 163 175 169 134 149 176 184 190 195 200 203 190 158 157 169 143 151 140 163 170 181 182 179 180 177 146 164 167 166 188 159
160 153 156 150 161 185 185 161 194 186 185 184 137 162 143 177 161 193 187 177 194 193 182 184 220 163 130 215 140 188 200 185 153 178 178 172 188 177 154 169 162 183 156 185
177 167 194 179 189 203 200 190 208 200 197 180 190 75 204 90 96 188 205 162 200 194 127 133 198 179 164 166 146 164 139 159 177 167 182 144 185 186 183 172 181 168 174 184
185 211 163 219 179 200 184 183 207 221 212 225 232 217 188 188 124 198 78 81 163 200 127 181 202 193 199 181 203 188 186 185 147 157 150 180 175 165 162 179 173 164 167 166
174 179 195 207 198 213 197 176 184 214 247 220 231 235 58 201 216 223 208 193 136 240 217 254 242 240 210 193 204 166 172 157 233 181 150 159 202 182 163 159 154 181 168 181
187 183 201 199 212 212 194 218 205 208 206 221 217 220 225 204 201 198 117 204 196 202 209 234 213 217 211 217 193 201 192 164 181 180 175 165 151 149 168 178 170 153 175 178
174 186 158 214 199 236 195 204 202 214 201 208 211 219 211 221 224 193 252 254 301 194 229 284 253 223 228 226 210 212 188 189 175 187 185 191 191 185 172 167 183 181 172 168
156 158 139 193 195 195 196 198 205 212 214 216 218 223 227 231 233 240 298 299 288 272 275 276 247 218 214 212 221 228 216 203 181 207 179 192 194 194 188 168 172 166 169 180
170 198 215 204 198 202 200 205 214 219 223 226 231 235 249 299 294 294 297 293 281 271 290 257 258 225 214 214 203 193 211 222 213 212 206 203 199 192 190 190 193 141 171 170
205 210 211 211 210 207 222 212 228 250 249 266 303 307 310 299 291 289 289 288 283 280 279 278 271 236 235 224 214 206 200 209 209 214 208 213 204 199 192 184 184 187 192 194
215 216 220 219 227 247 239 243 268 287 301 302 309 311 312 308 305 298 293 295 282 276 272 271 279 167 238 233 214 226 213 220 194 212 203 215 220 203 200 186 184 188 194 194
223 231 222 241 253 277 288 338 322 310 312 308 313 306 303 295 291 288 283 280 292 280 278 281 269 266 242 240 222 223 233 202 219 213 219 210 203 215 218 207 199 199 105 196
231 226 268 339 335 336 332 75 316 306 299 297 292 296 286 284 288 288 288 290 286 279 285 281 273 275 88 166 227 223 223 220 215 223 223 226 189 211 213 204 205 197 204 171
289 352 338 334 318 313 323 302 298 302 290 288 285 283 289 295 292 285 284 288 289 288 268 280 275 265 242 266 249 232 228 222 193 218 218 219 229 219 224 206 201 196 207 225
337 323 317 312 311 309 313 300 291 294 291 285 286 287 291 291 290 281 281 288 293 289 281 276 278 274 270 271 268 266 250 242 242 239 234 221 231 235 199 228 211 204 207 211
326 319 305 298 301 306 302 284 283 289 289 146 290 288 110 91 290 283 280 279 282 286 292 289 128 279 282 273 268 269 275 275 252 242 251 245 240 243 249 215 226 246 214 217
314 308 306 305 304 111 302 293 284 156 83 296 196 283 150 298 303 300 294 293 297 298 303 302 305 307 309 307 296 284 271 264 269 269 263 255 246 249 250 239 237 240 241 245
317 314 312 300 286 319 112 197 197 332 352 396 384 382 381 377 378 275 367 275 356 290 354 371 375 341 336 318 315 300 206 296 284 279 273 288 275 262 262 261 261 258 265 264
382 369 325 250 354 352 215 258 337 337 340 343 347 350 249 360 356 353 261 350 350 269 353 352 354 359 364 376 392 372 313 315 315 302 289 277 281 273 271 267 263 262 257 256
340 329 329 329 338 334 333 343 350 348 353 360 360 335 85 322 356 358 358 350 341 341 341 339 343 333 346 353 355 359 364 377 385 329 334 295 276 288 273 265 257 256 258 260
331 336 354 371 381 401 433 447 465 373 352 367 366 373 383 387 380 381 387 381 360 360 373 343 326 330 336 340 340 342 352 363 366 368 371 386 342 305 272 272 263 261 260 260
443 463 434 419 363 349 345 337 343 345 345 336 269 340 341 350 365 361 370 367 399 424 435 365 354 329 326 329 335 337 339 345 350 356 361 362 362 363 364 383 362 315 278 272
339 334 337 337 336 330 330 333 330 331 327 317 316 317 326 326 335 344 361 361 364 386 350 342 377 317 317 327 331 334 336 337 342 348 344 351 352 349 330 336 336 333 331 322
Wind_Speed
66 61 86 86 75 69 86 88 69 76 86 66 86 64 62 68 88 75 72 67 65 74 71 68 56 53 61 65 67 65 60 64 66 66 66 66 64 62 66 63 48 54 56 56
74 83 83 80 90 90 70 85 93 74 87 70 90 79 81 64 78 75 82 84 78 72 77 60 62 60 59 67 66 70 65 62 61 60 60 64 67 66 63 67 62 57 54 52
74 87 84 90 84 85 80 69 99 96 88 84 85 70 71 90 81 92 95 87 75 77 68 65 69 68 63 67 75 65 68 66 65 63 67 68 65 66 61 64 61 66 60 49
81 74 73 94 105 105 81 104 102 105 79 95 103 80 85 98 77 90 96 86 87 88 92 81 70 83 53 69 60 71 55 66 70 65 66 67 65 66 66 72 68 63 59 56
100 93 98 84 107 106 105 86 107 110 111 106 61 98 61 104 86 98 101 90 98 98 73 73 89 89 43 61 62 68 64 56 62 71 72 71 67 66 60 71 69 59 68 60
98 103 98 101 101 98 106 109 107 111 114 100 102 24 97 11 14 98 103 72 103 105 41 48 80 77 84 75 53 57 53 68 64 67 73 48 72 68 64 69 64 70 68 65
93 94 113 103 97 104 107 117 103 101 105 96 89 103 114 68 53 105 24 22 80 108 50 84 84 77 82 70 60 52 58 49 82 90 65 85 76 74 72 67 73 66 74 71
105 89 101 102 103 102 100 99 118 95 109 90 97 95 16 106 91 103 108 95 59 108 106 87 91 88 85 76 66 81 68 76 55 74 65 72 77 77 71 76 67 74 76 71
87 89 108 111 111 105 103 107 103 109 103 106 92 99 101 107 101 101 57 113 107 105 86 86 97 93 79 84 76 69 68 81 93 98 95 94 75 79 83 76 81 73 76 76
88 96 91 121 93 103 105 105 112 127 116 109 103 114 107 127 125 118 112 107 77 89 78 68 77 87 81 80 83 81 83 83 92 95 100 96 93 90 90 85 82 83 83 84
89 77 62 98 106 106 109 113 124 126 127 132 132 133 133 130 130 118 85 82 78 79 64 63 73 86 89 82 84 82 86 86 93 93 98 94 95 94 93 93 89 85 89 88
103 115 129 112 111 126 130 130 136 139 140 141 142 134 128 87 85 81 80 83 81 77 72 75 77 92 95 93 90 87 83 91 96 90 93 95 98 96 95 95 94 69 94 93
140 145 139 129 130 127 151 142 153 151 151 144 110 87 77 82 83 84 81 80 78 78 73 80 85 93 95 93 97 96 97 99 77 81 87 94 96 100 99 99 98 98 99 99
153 151 154 142 141 156 154 156 138 117 95 93 87 80 75 74 75 77 82 79 77 78 76 79 82 62 97 96 94 102 100 104 84 90 89 92 98 100 101 103 103 103 105 103
153 155 148 160 156 153 131 69 72 79 77 79 74 72 66 69 71 72 76 80 75 77 78 82 81 88 102 101 104 105 105 98 110 102 96 95 95 100 104 108 108 109 37 108
153 138 159 79 75 72 66 19 63 63 67 71 74 71 72 72 73 75 78 84 81 78 75 78 81 88 28 60 112 112 110 111 111 112 105 107 91 103 106 103 107 104 112 91
128 69 70 70 72 76 71 62 67 64 66 70 75 78 76 74 71 72 73 78 80 76 70 76 79 85 85 102 116 120 121 115 95 111 107 105 113 108 111 108 105 99 104 112
71 74 76 77 74 77 64 64 68 67 68 78 82 80 78 77 76 78 80 81 80 80 77 78 81 86 93 97 103 110 123 125 127 125 124 113 116 120 90 114 113 108 108 108
74 73 76 81 79 78 68 66 73 79 79 36 82 82 24 14 83 80 82 86 84 86 86 87 41 91 94 100 104 107 109 109 119 124 123 121 122 121 118 105 111 115 114 119
76 79 80 79 82 22 72 72 79 39 17 84 56 81 43 84 89 87 88 92 92 93 91 92 94 95 95 95 99 105 109 111 112 115 119 117 120 120 121 116 118 115 114 117
79 80 82 80 78 85 21 39 35 83 76 54 59 64 65 64 65 50 60 48 64 55 62 60 65 84 90 98 98 97 81 102 109 111 111 113 112 117 117 117 117 121 121 119
46 47 42 39 55 50 30 38 54 54 54 56 53 48 32 53 54 55 43 58 60 51 58 55 53 54 57 55 54 65 97 101 99 102 109 110 111 112 113 114 114 116 115 108
45 51 53 53 51 51 50 53 51 53 53 48 47 46 4 42 46 50 54 58 60 56 50 48 49 57 56 48 46 46 53 56 60 96 96 108 110 113 110 111 111 113 115 115
46 50 54 50 41 44 45 43 44 34 35 28 28 27 34 39 39 41 44 47 47 48 48 49 45 52 48 48 47 49 48 46 48 51 52 48 85 99 113 112 110 112 116 116
19 21 17 18 7 9 7 20 20 19 20 22 24 22 22 22 28 33 36 38 33 31 31 39 45 45 48 44 42 40 41 42 42 43 40 37 37 35 37 27 40 84 118 121
3 7 8 10 12 17 18 17 16 13 13 18 21 21 22 24 18 24 29 26 23 13 18 30 21 41 45 43 37 36 36 36 36 34 32 26 25 23 38 36 35 35 39 55
Wind_Direction
291 293 295 288 293 284 293 286 279 265 286 283 275 293 288 255 281 283 287 280 279 276 277 259 261 266 266 266 269 270 272 271 270 270 272 276 278 276 280 279 267 279 267 273
290 297 294 272 290 288 283 289 282 280 271 271 280 293 263 269 270 283 285 272 279 280 278 288 266 276 261 266 264 269 268 269 269 270 268 270 273 275 276 277 277 279 277 270
295 293 277 283 289 290 288 264 290 275 287 283 284 280 275 280 258 288 285 284 278 281 279 285 278 271 256 269 280 270 267 269 270 268 268 270 268 269 270 273 262 264 280 275
290 269 279 291 289 289 285 289 286 276 272 267 282 279 286 284 280 273 278 285 284 284 284 284 283 271 273 268 286 283 285 274 271 268 266 266 266 267 260 275 277 276 273 275
284 287 289 284 287 278 280 284 274 278 280 284 278 280 259 276 273 274 276 279 283 283 275 272 282 270 246 278 280 271 269 258 278 263 264 266 263 262 268 269 274 267 270 269
279 281 276 277 277 275 276 278 275 276 274 284 278 265 280 324 342 277 273 274 274 274 261 260 270 267 270 271 264 272 269 267 263 264 265 273 263 262 259 263 264 270 271 267
279 289 279 293 280 284 280 279 273 287 275 284 279 272 279 272 269 275 242 244 279 275 269 273 270 272 274 265 267 248 249 256 270 268 269 262 261 267 269 262 261 268 269 274
272 276 288 290 289 288 277 287 280 282 295 275 287 289 324 281 280 275 272 276 277 284 272 277 269 268 272 270 260 257 252 262 252 256 275 274 258 261 264 271 275 264 269 267
281 278 291 292 293 296 273 296 275 277 277 290 281 284 285 272 270 285 282 268 271 273 278 269 275 274 270 270 262 257 244 256 242 251 258 266 274 274 265 263 263 277 267 266
290 293 279 295 289 292 289 290 287 291 281 283 284 288 281 289 287 272 282 280 253 271 265 248 253 267 265 263 268 263 256 249 246 250 254 258 259 258 262 263 261 262 264 268
279 288 282 289 290 289 288 289 289 289 287 287 287 288 289 287 287 286 271 264 253 252 247 241 239 258 261 262 265 257 258 258 256 252 255 258 258 258 257 259 258 266 264 263
284 294 294 294 293 290 290 289 290 290 289 289 289 288 291 279 275 269 265 259 253 247 243 235 228 245 258 260 258 257 262 258 253 251 253 256 258 258 260 261 262 269 259 264
292 290 289 291 290 290 287 291 290 289 288 289 280 281 268 270 268 265 260 255 250 246 241 234 230 238 242 246 253 256 259 255 249 252 249 252 253 255 258 261 262 264 264 264
289 289 287 288 287 285 285 285 287 283 278 278 273 273 269 264 262 261 261 255 248 247 241 233 233 235 237 235 242 245 252 248 248 253 251 250 250 253 253 260 264 265 263 264
287 286 287 286 287 286 285 272 270 270 271 271 272 271 265 264 264 263 261 261 256 245 246 244 234 232 235 232 240 243 239 246 251 255 250 252 252 251 250 251 255 257 265 263
286 289 289 286 281 276 272 279 270 269 271 269 270 266 267 266 263 262 261 260 257 253 250 246 244 240 263 237 237 245 247 249 252 251 254 255 260 252 252 253 254 259 256 260
286 282 279 274 275 277 275 279 275 271 272 271 269 270 270 270 268 264 262 260 258 253 250 247 243 243 241 237 232 237 243 247 251 254 256 256 255 250 250 255 258 261 259 258
283 282 281 281 277 275 281 275 276 275 269 264 264 269 270 269 266 266 266 263 260 257 254 251 249 245 242 242 241 240 239 243 245 247 249 254 254 255 259 250 257 261 261 261
281 279 278 277 276 278 276 277 275 272 269 275 271 270 268 307 267 265 265 265 263 261 256 251 250 246 245 243 242 243 243 244 244 247 248 250 253 255 257 257 255 252 260 260
278 277 277 278 278 308 279 276 273 266 273 273 277 274 271 271 270 267 266 266 265 264 262 257 255 253 251 247 246 244 244 244 245 244 247 248 250 253 255 259 260 259 257 257
279 279 278 277 277 276 275 272 280 273 275 270 268 270 272 273 273 270 269 268 267 269 268 265 264 258 256 251 247 246 253 246 246 247 249 247 245 250 253 255 257 260 260 261
278 277 275 273 275 280 277 277 274 273 271 272 269 274 271 272 270 270 270 265 262 262 262 263 260 259 260 259 264 256 252 251 247 245 247 252 249 251 252 253 257 260 265 271
281 279 275 273 276 278 278 276 272 273 275 276 275 265 195 273 271 270 269 268 271 271 267 262 261 259 260 261 259 255 254 255 258 253 253 247 253 248 253 256 261 265 267 269
281 276 277 281 288 284 279 275 271 278 280 280 279 285 286 281 281 282 281 277 270 267 263 258 253 258 261 259 258 259 259 262 262 263 265 267 257 252 256 257 261 263 265 267
288 281 278 281 280 275 268 272 269 270 272 274 284 290 290 301 295 292 288 286 290 284 271 260 247 255 262 263 258 262 266 266 266 266 266 266 265 265 268 256 265 258 262 263
196 244 249 251 264 279 286 300 304 302 290 283 283 290 300 286 297 310 297 291 286 256 239 251 245 250 255 262 266 264 263 262 262 261 257 240 243 229 252 257 258 257 256 263